Hourly Data Report for January 31, 2001

SHERBROOKE A
QUEBEC

45°26'00.000" N
71°41'00.000" W
241.40 m
7028124
71610
YSC

Download Data

Hourly Data (January 2001)
Hourly Data Report for January 31, 2001
TIME
LST
Temp Definition
°C
Dew Point Definition
°C
Rel Hum Definition
%
Precip. Amount Definition
mm

Wind Dir Definition
10's deg

Wind Spd Definition
km/h
Visibility Definition
km
Stn Press Definition
kPa
Hmdx Definition


Wind Chill Definition


Weather Definition


00:00 -2.6 -4.1 89   5 11 8.0 96.57   -7 Snow
01:00 -3.0 -4.6 89   5 9 4.0 96.63   -7 Snow
02:00 -3.2 -4.8 89   4 9 2.1 96.70   -7 Snow
03:00 -3.2 -4.9 88   3 7 3.1 96.77   -6 Snow
04:00 -3.3 -5.0 88   3 4 11.3 96.87   -5 Snow
05:00 -3.3 -5.4 85   2 4 15.0 96.93   -5 Snow
06:00 -3.4 -5.5 85   4 4 12.9 97.00   -5  
07:00 -4.7 -7.1 83   3 9 15.0 97.10   -9  
08:00 -5.4 -7.7 84   4 13 19.3 97.16   -11 Cloudy
09:00 -6.4 -8.6 84   3 11 19.3 97.23   -11 Cloudy
10:00 -6.9 -9.2 84   4 15 19.3 97.23   -13 Cloudy
11:00 -7.1 -9.4 84   4 11 19.3 97.20   -12 Cloudy
12:00 -6.9 -9.1 84   4 13 24.1 97.06   -12 Cloudy
13:00 -6.7 -8.9 84   4 17 6.4 96.97   -13 Snow
14:00 -6.2 -8.2 86   4 15 3.2 96.97   -12 Snow
15:00 -6.1 -8.0 86   5 9 0.8 97.00   -10 Moderate Snow
16:00 -5.9 -7.7 87   5 11 0.6 97.06   -11 Moderate Snow
17:00 -5.7 -7.3 88   5 9 1.2 97.13   -10 Snow
18:00 -5.3 -6.9 88   5 7 4.0 97.20   -9 Snow
19:00 -4.9 -6.5 89   9 4 1.4 97.30   -7 Snow
20:00 -5.0 -6.5 89   22 7 1.6 97.40   -8 Snow
21:00 -5.1 -6.9 87   24 7 3.1 97.46   -8 Snow
22:00 -6.2 -8.1 86   29 11 2.9 97.53   -11 Snow
23:00 -6.9 -9.2 84   27 11 12.9 97.63   -12 Snow

Notes on Data Quality.

Legend

  • E = Estimated
  • M = Missing
  • NA = Not Available*
  • [empty] = Indicates an unobserved value
Date modified: